Flag for U.S.A. Weather past 2 weeks in Dallas, Texas, U.S.A.

Now
70 °F

Fog.


Feels Like: 67 °F
Forecast: 67 / 76 °F
Wind: 17 mph from Southeast

Location: Dallas Love Field

Current Time: May 23, 2015 at 7:17:45 AM

Latest Report: May 23, 2015 at 6:53 AM


Visibility: 5 mi

Pressure: 30.08 "Hg

Humidity: 90%

Dew point: 67 °F

Location of DallasLocation

Historic Weather in Dallas — Graph

°F

Dallas temperature yesterday

Maximum temperature yesterday: 72 °F (at 6:53 PM)
Minimum temperature yesterday: 61 °F (at 5:53 AM)
Average temperature yesterday: 66 °F

Past Weeks' High & Low Weather Summary

 TemperatureHumidityPressure
High90 °F (May 18, 3:53 PM)97% (May 10, 8:01 AM)30.25 "Hg (May 10, 8:01 AM)
Low56 °F (May 21, 6:53 AM)40% (May 18, 6:53 PM)29.71 "Hg (May 16, 6:53 PM)
Average73 °F77%29.98 "Hg
* Reported May 8 5:53 AM — May 23 5:53 AM, Dallas, Weather by CustomWeather, © 2015

Note: Actual official high and low records may vary slightly from our data, if they occured in-between our weather recording intervals... More about our weather records

Advertising

Dallas weather history for previous 24 hours

 ConditionsComfort  
Time TempWeatherWind HumidityBarometerVisibility
5:53 AM
Sat, May 23
70 °FDrizzle. Low clouds.13 mph90%30.07 "Hg7 mi
4:53 AM71 °FMostly cloudy.16 mph87%30.08 "Hg10 mi
3:53 AM71 °FOvercast.14 mph84%30.08 "Hg10 mi
2:53 AM71 °FMostly cloudy.14 mph84%30.07 "Hg10 mi
1:53 AM71 °FMostly cloudy.10 mph84%30.08 "Hg10 mi
12:53 AM71 °FOvercast.9 mph84%30.07 "Hg10 mi
11:53 PM
Fri, May 22
71 °FOvercast.7 mph84%30.09 "Hg10 mi
10:53 PM70 °FDrizzle. Overcast.7 mph84%30.09 "Hg9 mi
9:53 PM70 °FOvercast.7 mph81%30.08 "Hg10 mi
8:53 PM71 °FOvercast.6 mph78%30.07 "Hg10 mi
7:53 PM71 °FOvercast.7 mph78%30.07 "Hg10 mi
6:53 PM72 °FMore clouds than sun.3 mph73%30.06 "Hg10 mi
5:53 PM70 °FMostly cloudy.6 mph76%30.08 "Hg10 mi
4:53 PM69 °FCloudy.9 mph79%30.08 "Hg10 mi
3:53 PM69 °FMore clouds than sun.7 mph79%30.10 "Hg10 mi
2:53 PM67 °FMore clouds than sun.3 mph79%30.12 "Hg10 mi
1:53 PM64 °FThunderstorms. Mostly cloudy.5 mph81%30.12 "Hg5 mi
12:53 PM65 °FLight rain. Cloudy.14 mph70%30.12 "Hg9 mi
11:53 AM64 °FOvercast.9 mph65%30.14 "Hg10 mi
10:53 AM63 °FOvercast.13 mph70%30.15 "Hg10 mi
9:53 AM62 °FLight rain. Cloudy.17 mph67%30.15 "Hg10 mi
8:53 AM61 °FDrizzle. Mostly cloudy.13 mph87%30.16 "Hg8 mi
7:53 AM61 °FOvercast.9 mph90%30.15 "Hg7 mi
Weather by CustomWeather, © 2015

See weather overviewHow to use our weather pages